map of ETS home
Great Circle Mapper logo
ETS - Airport
Location
City:  Enterprise, Alabama, United States
Name:Enterprise Municipal Airport
ICAO:KEDN
IATA:ETS
FAA LID:EDN

Details
Type:Airport (Airfield)
Use:Public/Civil
Latitude:3117'59"N (31.299722)
Longitude:8553'59"W (-85.899832)
Datum:WGS 1984
Elevation:360 ft (110 m)
Variation:3.62W (WMM2015 magnetic declination)
-0.10 annual change
Runways:1
Longest:5080 × 100 ft (1548 × 30.5 m), paved

Time
Time Zone:UTC-6 (DST-5)
Local Time:

Weather
METAR:KEDN 052135Z AUTO 34012G17KT 290V360 10SM CLR 21/02 A2981 RMK AO2

Related Locations
Nearby:
Farthest:USL: 11223 mi / 18061 km
Useless Loop, WA, AU

Find:

   beyond  
but within

Other Information
Maps:
NOTAMs:
Links:
Sources:

  
flag of United States
flag of Alabama
  

Sectional Chart

Flight Planning
at skyvector.com

Satellite Image

Google Maps Satellite view

 

Copyright © 2004-2016 Karl L. Swartz. All rights reserved.
The Great Circle Mapper name and logo are trademarks of the Great Circle Mapper.
All other trademarks mentioned herein belong to their respective owners.
Please see credits for attibutions and further copyright information.

  Follow gcmap on Facebook Follow gcmap on Twitter Follow gcmap on Google+ GCmap on LinkedIn

hCard Microformat

Geo Microformat